Wind_Speed
6 6 6 7 7 8 8 8 9 9 10 9 10 10 10 11 10 10 11 11 12 12 12 12 12 12 11 12 13 12 12 11 11 11 11 11 10 10 11 11 12 11 11
6 7 7 7 7 8 9 9 10 10 10 10 10 11 11 12 12 11 12 12 13 13 13 12 12 13 12 12 13 12 12 12 11 12 12 12 11 11 11 11 11 11 11
7 7 7 8 8 9 10 10 10 10 10 11 11 12 12 13 13 13 13 13 14 14 14 14 14 14 14 14 13 13 13 13 13 13 13 12 12 11 11 11 11 11 11
7 8 8 9 9 9 10 11 12 11 11 12 12 13 13 13 14 15 14 14 14 15 15 15 15 16 15 15 15 15 15 14 14 14 14 13 13 12 12 12 12 12 12
8 8 8 9 9 10 11 11 12 13 13 13 13 14 14 14 14 15 15 15 15 16 16 16 16 16 16 16 16 16 16 16 15 15 15 15 14 14 13 13 13 13 13
8 8 9 9 9 10 11 12 13 13 14 14 14 15 15 15 15 15 14 14 15 15 16 17 17 17 17 17 17 17 17 17 17 16 16 16 15 15 15 14 14 14 14
9 9 9 9 10 11 12 12 12 13 13 14 14 14 15 15 15 16 15 15 15 15 15 16 17 18 18 18 18 19 18 18 17 17 17 17 16 16 16 16 15 15 15
10 10 10 10 10 11 12 12 13 13 13 13 13 14 14 15 16 17 17 17 17 17 17 17 18 18 18 18 19 19 19 18 18 18 18 18 17 17 17 16 16 16 16
10 11 11 11 11 11 12 12 12 13 13 13 14 14 15 15 16 17 18 18 18 18 19 19 19 19 20 19 19 19 19 20 19 18 18 18 18 18 17 17 17 17 16
11 11 11 11 11 12 12 12 12 13 13 14 14 14 15 16 17 17 18 19 19 19 19 19 19 19 20 19 19 19 19 19 20 20 19 19 19 20 19 18 18 17 17
12 11 12 12 13 13 13 12 13 13 14 15 15 15 15 16 17 18 18 19 20 20 20 19 19 19 20 19 19 20 20 20 21 21 21 21 21 21 21 20 20 19 19
12 13 13 14 14 13 13 13 12 13 13 14 15 15 16 17 17 17 18 18 18 18 19 19 19 19 19 19 20 20 21 22 22 22 22 22 22 22 22 22 22 21 20
13 14 14 15 15 14 14 13 12 13 13 13 14 15 16 16 17 18 18 18 19 19 19 19 20 19 19 20 20 21 21 22 22 22 22 22 22 22 22 22 22 22 22
14 14 14 15 16 15 15 14 13 13 14 14 14 15 16 17 17 18 18 19 19 19 20 21 21 20 20 21 22 22 22 23 23 22 22 22 22 22 22 22 21 21 21
14 15 16 15 15 16 16 15 14 14 15 14 14 15 15 16 17 17 17 18 18 19 20 21 21 22 22 22 23 23 23 23 24 23 22 22 22 23 23 23 22 22 22
15 16 16 16 15 16 16 16 15 14 15 15 15 15 15 16 17 17 18 18 19 19 20 21 22 22 23 23 23 24 24 24 25 24 24 24 24 25 25 24 24 24 24
16 17 17 16 16 16 17 16 16 15 16 16 16 16 16 16 17 17 18 19 19 19 20 21 22 22 23 23 23 24 24 24 24 24 24 25 25 26 25 25 25 26 26
17 18 18 17 17 17 17 17 16 16 16 16 16 17 17 17 18 18 18 19 20 20 20 21 22 22 22 22 22 22 23 24 24 24 24 25 25 26 26 26 26 27 27
18 18 19 18 18 18 17 16 16 16 16 16 17 17 18 18 18 18 19 19 20 20 20 20 21 21 22 22 22 22 23 25 25 25 26 26 26 26 27 27 27 27 27
18 19 19 19 18 18 18 17 16 17 17 18 18 19 19 19 18 19 18 19 20 20 20 20 21 21 22 22 22 22 24 25 25 26 26 27 27 26 27 28 27 27 27
19 19 19 19 19 19 18 17 17 17 17 18 19 19 19 20 20 19 20 20 21 21 22 22 22 22 22 22 22 23 24 24 25 26 27 27 28 28 26 26 27 27 26
19 20 19 19 19 19 19 19 18 18 18 18 19 19 20 20 20 21 21 21 21 22 22 23 23 23 24 24 24 23 24 25 25 26 27 27 28 27 26 25 26 26 27
19 19 19 20 20 20 20 20 20 19 19 19 19 20 20 20 21 21 21 21 21 22 22 23 24 24 24 24 24 24 25 25 26 27 27 27 27 27 27 26 26 26 27
20 20 20 19 20 20 20 20 20 21 21 21 21 20 21 22 22 22 22 21 21 22 23 23 23 24 24 25 25 24 25 26 26 27 27 26 26 26 26 26 26 25 26
22 21 21 21 21 21 21 21 21 22 22 22 22 21 21 21 22 23 22 22 23 23 23 24 24 24 25 25 25 25 25 25 25 26 26 26 26 26 25 26 25 25 26
22 22 22 22 22 22 22 22 21 22 22 23 23 23 23 22 22 22 23 23 23 24 24 25 25 25 25 25 25 25 25 25 25 25 25 25 25 25 24 24 25 25 26
Wind_Direction
289 283 283 274 262 256 256 260 260 259 257 252 252 249 248 250 254 252 254 255 255 251 246 244 240 240 244 247 248 250 251 251 251 251 256 258 261 264 263 263 264 264 268
291 285 283 277 267 260 261 260 259 260 259 255 251 251 250 252 251 253 254 254 256 250 246 248 243 243 247 248 247 249 254 256 256 255 256 257 260 262 263 266 267 266 265
296 289 284 280 277 272 267 264 262 264 262 260 257 255 253 252 253 254 254 253 253 248 246 247 247 247 250 249 248 250 255 258 259 257 257 258 260 261 261 265 266 263 263
304 297 289 285 282 278 273 269 269 270 265 263 260 258 257 254 253 253 253 254 251 248 248 248 248 248 251 252 251 253 254 257 261 257 254 258 260 261 261 267 265 262 261
308 303 295 288 284 280 276 273 271 270 267 264 261 258 253 252 252 253 254 254 251 250 249 249 249 250 251 252 252 254 255 256 261 257 254 258 260 261 261 264 264 262 259
316 309 301 293 285 281 279 277 274 271 270 266 263 260 257 253 251 253 254 253 252 252 250 249 250 251 253 254 253 254 255 255 257 258 257 259 259 260 260 262 263 261 258
318 311 305 301 292 287 284 283 278 273 272 270 265 258 254 254 251 251 250 251 251 252 253 253 253 254 254 256 257 256 255 255 256 258 259 262 260 258 261 262 262 260 258
319 311 308 306 300 294 290 286 279 276 272 269 265 263 259 257 254 252 251 252 251 251 252 254 255 255 254 256 257 255 255 255 257 259 260 262 257 259 261 263 262 260 259
316 313 310 306 303 300 293 288 284 280 275 272 268 264 262 259 256 255 254 254 254 254 254 255 256 256 257 257 257 257 257 256 257 257 260 258 257 256 260 262 261 258 258
319 313 311 309 306 305 298 290 283 280 276 273 269 266 264 262 260 257 258 259 257 256 256 258 259 259 261 260 258 258 258 258 258 259 260 258 259 258 257 259 259 259 258
323 320 315 310 307 305 300 293 286 282 280 275 272 270 268 265 264 261 260 259 257 256 257 258 259 260 262 263 261 260 259 258 258 259 258 258 258 257 256 256 257 258 258
319 321 318 313 310 309 306 298 288 285 283 280 278 275 272 268 265 263 261 260 258 256 256 257 258 260 261 262 261 261 260 259 258 258 258 259 258 257 255 254 255 257 258
320 320 318 315 314 309 305 299 291 288 284 283 282 280 276 272 268 264 261 260 260 259 257 257 259 260 260 260 262 261 261 259 258 258 258 257 256 257 255 255 256 257 259
322 320 317 315 312 307 301 297 290 286 283 284 283 281 278 274 270 266 263 262 262 261 258 257 259 261 261 262 263 264 263 262 259 258 258 256 255 256 258 257 258 258 260
319 318 315 313 312 308 302 297 296 291 287 288 285 283 280 277 273 269 266 265 264 263 261 260 260 261 262 264 264 265 265 264 259 258 258 256 256 256 257 259 260 261 262
320 319 316 313 311 309 306 300 296 293 291 290 289 286 282 279 276 272 269 266 265 264 264 262 262 262 262 264 265 265 264 262 259 259 258 257 257 258 258 259 262 262 262
319 319 319 315 310 309 309 305 295 291 291 291 291 290 287 281 279 277 274 270 268 267 266 264 264 263 264 265 265 264 261 260 258 257 257 258 259 260 259 260 261 262 263
319 317 316 313 309 308 309 307 303 298 293 292 290 290 291 288 282 278 276 273 270 269 268 267 265 266 265 266 267 265 262 260 258 257 257 258 260 260 262 262 261 263 262
320 317 313 309 308 307 307 306 303 302 297 291 290 289 289 289 284 280 277 275 272 270 269 267 267 267 267 266 267 267 265 262 259 258 259 259 261 263 264 263 263 263 262
320 318 315 310 309 309 308 307 303 300 300 296 289 288 289 288 286 283 278 274 272 270 269 269 268 268 266 267 267 267 266 264 260 258 259 259 260 263 264 263 263 264 263
321 319 316 314 314 312 310 309 307 305 302 299 296 293 289 287 285 284 279 276 274 272 270 271 271 269 266 267 267 267 264 264 263 262 261 260 260 262 265 263 262 264 263
321 320 317 315 314 311 308 305 306 305 305 304 301 297 293 289 284 284 281 278 276 274 273 272 271 270 267 266 268 268 265 264 264 264 263 263 262 262 262 264 264 263 262
321 322 320 317 315 313 310 307 307 305 305 303 301 298 294 289 287 285 284 283 280 278 276 273 272 270 268 269 271 270 268 266 265 264 263 263 262 262 263 264 265 263 262
321 320 318 317 316 314 311 308 305 305 303 302 301 298 295 291 288 287 284 283 282 280 277 276 275 273 269 269 270 274 272 269 266 265 264 263 263 262 261 263 265 265 264
318 316 317 317 316 315 312 309 305 304 303 302 301 298 295 291 289 287 285 283 282 282 281 279 278 277 274 271 273 274 274 270 267 266 264 264 262 261 262 263 264 264 265
315 315 314 315 315 313 312 310 307 305 303 301 298 297 296 293 292 290 287 284 282 281 281 281 280 278 276 274 275 274 274 272 268 265 263 262 262 261 260 262 262 264 265
Height
5871 5871 5871 5870 5870 5871 5871 5872 5872 5872 5873 5873 5874 5874 5875 5876 5877 5877 5878 5879 5879 5880 5881 5881 5882 5883 5884 5884 5885 5886 5887 5887 5887 5888 5889 5889 5890 5891 5891 5892 5892 5892 5893
5870 5870 5869 5869 5869 5869 5869 5870 5870 5870 5871 5871 5871 5872 5873 5873 5874 5875 5875 5876 5877 5877 5878 5879 5880 5881 5881 5882 5883 5884 5884 5885 5885 5886 5886 5887 5888 5888 5889 5889 5890 5890 5890
5868 5868 5868 5867 5867 5867 5867 5867 5867 5868 5868 5869 5869 5869 5870 5870 5871 5872 5872 5873 5874 5874 5875 5876 5877 5878 5879 5879 5880 5881 5882 5882 5883 5883 5884 5885 5885 5886 5886 5887 5887 5887 5888
5866 5866 5866 5865 5865 5865 5865 5865 5865 5865 5865 5866 5866 5866 5867 5867 5868 5868 5869 5870 5870 5871 5872 5873 5874 5875 5876 5876 5877 5878 5879 5880 5880 5880 5881 5882 5882 5883 5884 5884 5884 5885 5885
5864 5864 5864 5863 5863 5863 5862 5862 5862 5862 5862 5862 5862 5862 5863 5864 5864 5865 5865 5866 5867 5868 5869 5869 5870 5871 5872 5873 5874 5875 5876 5876 5877 5877 5877 5879 5879 5880 5881 5881 5882 5882 5883
5863 5862 5861 5861 5860 5860 5859 5859 5858 5858 5858 5858 5858 5858 5859 5860 5861 5861 5862 5863 5863 5864 5865 5866 5867 5868 5869 5869 5870 5871 5872 5872 5873 5874 5874 5875 5876 5877 5877 5878 5879 5879 5880
5861 5860 5859 5859 5858 5857 5856 5855 5855 5854 5855 5855 5854 5855 5855 5856 5856 5857 5858 5859 5860 5861 5861 5862 5863 5864 5865 5865 5866 5867 5868 5868 5869 5870 5871 5871 5872 5873 5874 5875 5875 5876 5876
5859 5858 5857 5856 5855 5854 5853 5852 5852 5851 5851 5851 5851 5851 5852 5853 5853 5854 5854 5855 5856 5857 5858 5858 5859 5860 5861 5861 5862 5863 5864 5865 5865 5866 5867 5867 5868 5869 5870 5871 5871 5872 5873
5858 5856 5855 5854 5853 5851 5850 5849 5849 5848 5847 5847 5847 5848 5848 5848 5849 5850 5850 5851 5852 5853 5853 5854 5855 5856 5857 5857 5858 5859 5860 5861 5861 5862 5862 5863 5864 5865 5866 5866 5867 5868 5869
5855 5854 5852 5851 5850 5848 5847 5846 5845 5845 5844 5844 5843 5844 5844 5844 5845 5846 5846 5846 5847 5848 5849 5850 5850 5851 5852 5853 5853 5854 5855 5856 5857 5857 5858 5858 5859 5860 5861 5862 5863 5864 5864
5853 5851 5850 5848 5847 5845 5843 5842 5841 5841 5840 5840 5840 5840 5840 5840 5840 5841 5841 5842 5842 5843 5844 5845 5845 5846 5847 5848 5849 5849 5850 5851 5852 5852 5853 5854 5854 5855 5856 5857 5858 5859 5860
5851 5849 5847 5845 5843 5842 5840 5838 5837 5837 5837 5836 5836 5836 5836 5836 5836 5836 5837 5837 5837 5838 5839 5840 5840 5841 5842 5843 5843 5844 5845 5846 5846 5847 5848 5849 5849 5850 5851 5852 5853 5854 5854
5849 5847 5845 5843 5841 5839 5837 5835 5834 5833 5833 5832 5832 5831 5831 5831 5831 5832 5832 5832 5833 5834 5834 5835 5835 5836 5837 5838 5838 5839 5839 5840 5841 5842 5843 5844 5844 5845 5846 5847 5847 5848 5849
5846 5844 5842 5840 5838 5836 5834 5832 5830 5830 5829 5828 5827 5827 5826 5826 5826 5827 5827 5828 5828 5829 5829 5830 5830 5831 5831 5832 5833 5833 5834 5835 5835 5836 5837 5838 5839 5839 5840 5841 5841 5843 5843
5843 5841 5839 5837 5834 5832 5831 5829 5827 5826 5825 5824 5823 5822 5822 5822 5822 5822 5822 5823 5824 5824 5824 5824 5825 5825 5826 5826 5827 5827 5828 5828 5829 5830 5831 5832 5833 5834 5835 5836 5837 5837 5837
5840 5838 5836 5833 5831 5829 5827 5825 5824 5822 5821 5820 5819 5818 5818 5817 5817 5817 5817 5818 5818 5818 5818 5818 5819 5819 5819 5820 5820 5821 5821 5822 5823 5824 5825 5826 5827 5828 5828 5829 5830 5831 5831
5837 5835 5832 5830 5828 5825 5823 5821 5820 5818 5817 5816 5815 5814 5813 5812 5812 5812 5812 5812 5812 5813 5813 5813 5813 5813 5814 5814 5814 5814 5814 5815 5816 5817 5818 5819 5820 5821 5821 5822 5823 5824 5824
5834 5831 5829 5826 5824 5822 5820 5818 5816 5814 5813 5812 5810 5810 5809 5808 5807 5807 5807 5806 5807 5807 5807 5807 5807 5807 5807 5807 5807 5807 5808 5808 5809 5810 5811 5812 5812 5813 5814 5815 5816 5816 5817
5830 5827 5825 5822 5820 5818 5816 5814 5812 5810 5809 5807 5806 5805 5804 5803 5802 5802 5801 5801 5801 5801 5801 5801 5801 5801 5801 5801 5801 5801 5801 5802 5802 5803 5804 5804 5805 5806 5807 5808 5808 5809 5809
5827 5824 5821 5818 5816 5814 5812 5810 5808 5806 5804 5802 5801 5800 5799 5798 5797 5796 5796 5795 5795 5794 5794 5795 5794 5794 5794 5794 5795 5795 5795 5795 5795 5796 5796 5797 5798 5798 5799 5800 5801 5801 5801
5823 5820 5817 5814 5812 5810 5808 5806 5804 5802 5800 5798 5796 5794 5793 5792 5791 5791 5790 5789 5789 5788 5788 5788 5788 5788 5788 5788 5788 5788 5788 5788 5788 5789 5789 5790 5790 5791 5792 5792 5793 5793 5793
5820 5817 5813 5811 5808 5806 5804 5801 5799 5797 5795 5793 5791 5789 5788 5786 5786 5785 5784 5783 5783 5782 5782 5781 5781 5781 5781 5781 5781 5780 5780 5781 5781 5781 5782 5782 5782 5783 5784 5785 5785 5786 5786
5816 5813 5810 5807 5804 5802 5799 5797 5795 5792 5790 5788 5786 5784 5782 5781 5780 5778 5777 5776 5776 5775 5775 5775 5774 5774 5774 5774 5774 5773 5773 5773 5773 5773 5774 5775 5775 5775 5776 5776 5777 5778 5778
5812 5809 5806 5803 5800 5797 5795 5792 5790 5787 5785 5783 5780 5778 5777 5775 5774 5772 5771 5770 5769 5769 5768 5768 5768 5767 5767 5766 5766 5766 5765 5765 5765 5765 5766 5767 5767 5768 5768 5769 5769 5770 5770
5807 5804 5801 5798 5795 5792 5790 5787 5784 5782 5779 5777 5775 5773 5771 5769 5767 5766 5765 5764 5763 5762 5761 5761 5760 5760 5759 5759 5758 5758 5757 5757 5757 5757 5758 5759 5759 5760 5761 5761 5761 5761 5762
5802 5799 5796 5793 5790 5787 5784 5781 5779 5776 5773 5771 5769 5766 5764 5762 5761 5759 5758 5757 5756 5755 5754 5753 5753 5752 5752 5751 5750 5750 5749 5749 5749 5750 5750 5751 5751 5752 5753 5753 5753 5753 5754